Vorticity
nan nan nan nan nan nan nan nan nan nan nan nan nan nan nan nan nan nan nan nan nan nan nan nan nan nan nan nan nan nan nan nan nan nan nan nan nan nan nan nan nan nan nan nan nan
nan 6 6 7 7 6 10 10 6 7 7 8 7 8 8 9 14 13 17 10 10 8 6 3 6 5 5 7 7 7 5 7 7 15 1 1 -2 7 9 5 4 5 15 14 nan
nan 5 6 7 6 8 10 10 6 6 7 8 8 8 8 11 16 15 16 14 11 2 3 9 8 7 5 8 7 3 7 10 13 7 6 3 5 3 4 9 8 14 12 5 nan
nan 6 6 7 6 8 10 8 6 6 7 8 8 9 11 12 7 7 11 24 14 5 5 7 6 6 7 7 6 1 11 10 14 6 11 14 5 2 3 7 22 24 11 5 nan
nan 6 6 7 8 9 9 8 8 7 8 8 8 10 13 8 7 6 13 17 10 7 5 4 6 7 7 6 5 9 8 8 7 5 11 9 4 4 13 11 21 16 7 5 nan
nan 7 7 8 9 10 9 10 10 8 9 8 9 11 11 4 13 8 6 4 6 8 7 4 6 6 7 14 10 14 12 7 3 6 11 8 7 10 9 11 12 9 6 6 nan
nan 7 7 8 9 10 10 9 9 9 10 8 9 11 8 9 7 6 -2 3 11 8 6 9 6 4 6 11 14 9 7 11 12 7 5 6 5 7 9 11 8 5 6 6 nan
nan 6 8 8 9 10 10 10 9 10 9 10 9 9 8 11 4 9 8 10 15 10 4 14 10 6 9 8 9 9 7 8 14 6 6 7 5 3 12 11 8 5 5 5 nan
nan 7 7 8 10 11 11 9 12 11 9 11 9 5 7 11 11 11 13 9 12 14 12 11 10 7 13 7 4 8 9 8 6 8 9 11 3 6 14 13 7 6 7 6 nan
nan 7 8 9 11 12 12 10 13 10 6 5 9 9 9 3 8 13 12 9 10 7 5 7 9 7 8 7 8 11 10 6 6 12 10 6 3 9 14 11 6 7 7 7 nan
nan 7 8 11 14 14 8 8 9 8 5 2 3 5 2 8 14 8 8 9 6 5 8 8 11 15 8 2 10 14 11 8 2 9 9 7 5 9 12 11 8 8 6 6 nan
nan 7 9 14 16 9 3 3 7 10 17 13 -0 5 7 10 11 9 7 8 7 9 13 5 9 11 11 12 11 11 8 6 5 9 11 10 4 8 10 9 10 9 9 8 nan
nan 7 13 17 11 8 8 6 -4 6 17 18 12 8 15 10 8 9 9 8 10 9 11 11 8 10 11 10 4 9 14 9 6 2 11 10 4 5 8 11 9 9 10 11 nan
nan 9 14 7 4 7 13 12 6 6 13 14 10 12 11 7 9 8 11 10 9 11 6 13 11 11 9 4 5 9 8 14 12 4 2 5 8 16 6 6 9 10 9 8 nan
nan 11 16 -2 2 5 7 17 13 8 13 11 6 9 12 9 10 7 9 16 10 8 7 11 11 8 5 6 12 13 11 10 7 8 9 8 4 9 11 6 10 8 8 7 nan
nan 11 8 6 5 6 7 14 10 7 14 10 10 9 4 7 6 6 7 8 10 10 12 7 7 9 8 13 17 7 5 4 7 9 8 9 9 3 12 13 12 9 7 6 nan
nan 12 3 3 5 12 16 10 6 9 12 13 11 10 4 6 8 9 11 7 8 6 7 1 6 10 10 7 9 6 3 4 8 8 9 10 9 13 13 17 15 11 7 7 nan
nan 9 5 4 1 8 15 10 7 11 7 9 16 12 8 4 4 11 11 6 6 10 10 7 6 5 6 7 8 11 8 11 12 11 10 8 11 11 8 12 17 15 10 9 nan
nan 6 9 15 7 5 14 8 7 7 13 10 11 6 5 6 8 7 7 9 8 13 9 8 8 6 9 11 14 10 10 9 12 8 9 11 12 7 6 13 15 13 10 7 nan
nan 9 16 17 11 5 9 8 5 7 12 13 8 10 8 6 6 8 7 7 7 8 12 13 6 8 8 4 9 14 13 6 7 8 11 8 8 15 14 12 12 11 8 6 nan
nan 7 16 10 4 10 10 8 8 8 11 14 7 12 10 7 10 11 5 4 9 8 12 10 8 10 7 12 5 9 2 4 7 11 11 10 10 10 14 14 12 10 10 8 nan
nan 11 10 6 5 9 12 6 7 11 10 10 11 12 13 8 11 11 5 5 12 9 8 6 12 11 8 7 8 9 14 8 10 10 5 9 12 10 8 11 14 13 11 9 nan
nan 7 8 15 14 6 11 7 6 11 12 11 9 8 15 10 7 11 9 10 12 12 11 7 8 8 7 7 9 12 9 6 7 11 10 3 7 10 7 11 13 11 10 9 nan
nan 5 8 11 15 15 8 7 2 9 10 8 10 10 12 7 11 15 8 7 10 10 11 10 7 9 7 7 12 17 11 7 0 1 9 3 7 10 7 8 11 12 10 10 nan
nan 12 12 14 11 13 11 8 5 6 8 10 8 12 6 8 9 9 9 7 9 9 8 11 10 11 10 10 10 10 15 12 4 0 1 4 4 8 16 10 12 12 11 9 nan
nan 9 14 16 12 12 10 11 6 6 13 12 11 13 8 11 14 13 10 8 11 9 7 11 13 11 8 7 9 11 10 10 10 8 5 6 6 16 13 16 16 12 10 8 nan
nan nan nan nan nan nan nan nan nan nan nan nan nan nan nan nan nan nan nan nan nan nan nan nan nan nan nan nan nan nan nan nan nan nan nan nan nan nan nan nan nan nan nan nan nan
CAPE
4 1 2 3 2 3 2 5 3 2 0 3 3 4 3 1 0 0 0 0 0 0 0 0 0 0 0 0 0 0 0 62 141 253 412 274 84 65 171 289 310 224 701 911 423
2 1 3 5 3 1 1 5 0 2 2 6 4 2 0 0 0 0 0 0 0 14 0 0 0 0 0 0 0 0 0 16 57 434 237 37 7 3 156 306 277 582 1088 1079 661
0 0 1 1 3 0 1 3 0 2 2 8 5 1 0 0 0 0 0 0 8 6 0 0 0 0 0 0 0 0 0 0 82 325 124 75 10 29 105 122 403 523 1235 1098 1096
0 0 0 0 1 1 0 1 1 2 4 3 3 0 0 0 0 0 224 215 48 0 0 0 0 0 0 0 0 0 0 13 146 139 67 31 51 96 196 182 246 608 1262 1172 1188
0 0 0 0 1 2 1 0 1 2 3 0 0 0 0 0 0 102 137 90 0 0 0 0 0 0 0 0 0 0 0 7 51 62 39 164 74 175 352 318 482 1143 1283 1169 773
0 0 0 0 1 2 1 0 0 0 0 0 0 0 0 0 0 32 7 0 0 0 0 0 0 0 0 0 0 0 0 0 0 60 3 75 132 140 216 417 797 1159 941 666 406
0 0 0 0 1 1 1 0 0 0 0 0 0 0 0 0 0 54 0 0 0 0 0 0 0 0 0 0 0 0 0 0 0 22 65 11 25 6 268 398 690 559 546 468 350
0 0 0 0 0 0 0 0 0 0 0 0 0 0 3 0 1 1 1 0 0 0 0 0 0 0 0 0 0 0 0 7 0 26 0 2 7 0 434 391 522 539 521 447 265
0 0 0 0 0 0 0 0 0 0 0 0 0 6 21 0 1 1 0 0 0 0 0 0 0 0 0 0 0 0 0 0 0 0 0 0 0 0 316 427 494 550 513 468 234
0 0 0 0 0 0 0 0 0 0 0 0 0 77 60 6 3 2 0 0 9 0 0 0 0 0 0 0 16 1 0 0 0 0 0 0 0 0 346 554 461 449 471 387 301
0 0 0 0 0 0 0 0 0 0 0 0 0 1 0 0 0 0 0 3 26 24 0 7 18 0 0 1 0 1 0 0 0 0 0 0 0 0 254 501 451 472 465 380 322
0 0 0 0 0 0 0 0 0 1 43 0 0 0 0 0 2 0 0 0 16 10 74 47 33 0 0 0 0 0 19 25 0 0 17 50 78 0 106 328 463 482 471 397 384
0 0 0 0 0 0 0 0 0 0 300 5 0 0 0 0 0 0 0 11 9 5 61 103 9 0 1 9 35 45 88 32 12 0 0 34 60 54 0 53 74 189 297 383 450
0 0 0 0 0 0 0 0 0 0 93 0 0 0 0 0 0 0 0 16 65 66 30 81 7 50 84 63 61 117 1 10 9 48 94 2 94 96 59 15 8 29 188 254 169
0 0 0 0 0 0 0 0 3 51 0 0 0 0 0 0 0 0 0 5 38 55 17 91 48 65 86 38 4 48 1 10 9 38 49 25 41 139 46 55 37 54 175 230 119
0 0 0 0 0 0 0 70 91 135 0 0 0 0 0 0 0 0 1 0 6 63 86 68 24 57 47 0 15 22 77 78 77 76 63 28 59 1 20 16 75 81 104 90 29
0 0 0 0 0 114 14 31 66 5 0 0 0 0 0 0 0 0 7 12 38 119 150 82 53 2 1 59 28 75 68 21 28 18 1 3 13 0 0 0 37 75 54 9 0
0 0 0 0 0 0 0 13 5 0 0 0 0 0 0 0 0 1 17 25 0 34 128 84 56 0 0 29 45 37 11 0 0 0 3 0 25 118 0 0 0 13 19 0 0
0 8 0 0 0 0 2 8 0 0 0 0 0 0 0 0 0 0 12 18 7 21 23 49 8 0 0 0 0 16 12 0 10 0 1 0 0 0 0 0 0 14 0 0 0
0 0 0 0 0 0 20 0 0 0 0 0 0 0 0 0 0 0 7 0 0 0 0 26 8 0 0 0 0 10 0 0 0 0 0 0 0 0 0 0 0 1 0 0 0
3 0 84 163 107 75 8 0 0 6 0 0 0 0 0 0 0 0 1 0 0 0 0 9 8 0 0 0 0 0 0 0 0 0 0 0 0 0 0 0 0 0 0 0 0
8 8 158 136 67 39 7 0 0 4 0 0 0 0 0 0 0 0 0 0 0 0 0 0 1 13 0 0 0 0 0 0 0 0 0 0 0 0 0 0 0 0 0 0 0
14 176 6 0 181 1 0 0 0 0 0 5 1 0 9 25 24 22 14 0 0 0 0 0 0 1 0 0 0 0 0 0 0 0 0 46 0 0 0 0 0 0 0 0 0
69 215 216 37 23 9 1 0 0 0 0 0 19 63 99 62 15 52 16 0 0 0 0 0 0 0 0 0 0 0 0 0 0 0 0 0 0 0 0 0 0 0 0 0 0
204 71 8 251 16 0 1 0 0 68 3 9 60 118 129 107 43 40 0 0 0 0 0 0 0 0 0 0 0 0 0 0 0 0 0 0 0 0 0 0 0 0 0 0 0
178 96 0 241 0 0 0 0 0 30 55 75 151 130 151 169 64 111 8 0 0 0 0 0 0 0 0 0 0 0 0 0 0 0 0 0 0 0 0 0 0 0 0 0 0
274 0 214 0 0 0 0 0 0 189 16 0 228 154 140 47 0 12 0 0 0 0 0 0 0 0 0 0 0 0 0 0 0 0 0 0 0 0 0 0 0 0 0 0 0